SCP
0 0 0 0 0 0 0 0 0 0 0 0 0 0 0 0 0 0 0 0 0 0 0 0 0 0 0 0 0 0 0 0 0 0 0 0 0 0 0 0 1 1 1
0 0 0 0 0 0 0 0 0 0 0 0 0 0 0 0 0 0 0 0 0 0 0 0 0 0 0 0 0 0 0 0 0 0 0 0 0 0 0 0 1 1 1
0 0 0 0 0 0 0 0 0 0 0 0 0 0 0 0 0 0 0 0 0 0 0 0 0 0 0 0 0 0 0 0 0 0 0 0 0 0 0 0 0 1 1
0 0 0 0 0 0 0 0 0 0 0 0 0 0 0 0 0 0 0 0 0 0 0 0 0 0 0 0 0 0 0 0 0 0 0 0 0 0 0 0 0 1 1
0 0 0 0 0 0 0 0 0 0 0 0 0 0 0 0 0 0 0 0 0 0 0 0 0 0 0 0 0 0 0 0 0 0 0 0 0 0 0 0 0 0 1
0 0 0 0 0 0 0 0 0 0 0 0 0 0 0 0 0 0 0 0 0 0 0 0 0 0 0 0 0 0 0 0 0 0 0 0 0 0 0 0 0 0 0
0 0 0 0 0 0 0 0 0 0 0 0 0 0 0 0 0 0 0 0 0 0 0 0 0 0 0 0 0 0 0 0 0 0 0 0 0 0 0 0 0 0 0
0 0 0 0 0 0 0 0 0 0 0 0 0 0 0 0 0 0 0 0 0 0 0 0 0 0 0 0 0 0 0 0 0 0 0 0 0 0 0 0 0 0 0
0 0 0 0 0 0 0 0 0 0 0 0 0 0 0 0 0 0 0 0 0 0 0 0 0 0 0 0 0 0 0 0 0 0 0 0 0 0 0 0 0 0 0
0 0 0 0 0 0 0 0 0 0 0 0 0 0 0 0 0 0 0 0 0 0 0 0 0 0 0 0 0 0 0 0 0 0 0 0 0 0 0 0 0 0 0
0 0 0 0 0 0 0 0 0 0 0 0 0 0 0 0 0 0 0 0 0 0 0 0 0 0 0 0 0 0 0 0 0 0 0 0 0 0 0 0 0 0 0
0 0 0 0 0 0 0 0 0 0 0 0 0 0 0 0 0 0 0 0 0 0 0 0 0 0 0 0 0 0 0 0 0 0 0 0 0 0 0 0 0 0 0
0 0 0 0 0 0 0 0 0 0 0 0 0 0 0 0 0 0 0 0 0 0 0 0 0 0 0 0 0 0 0 0 0 0 0 0 0 0 0 0 0 0 0
0 0 0 0 0 0 0 0 0 0 0 0 0 0 0 0 0 0 0 0 0 0 0 0 0 0 0 0 0 0 0 0 0 0 0 0 0 0 0 0 0 0 0
0 0 0 0 0 0 0 0 0 0 0 0 0 0 0 0 0 0 0 0 0 0 0 0 0 0 0 0 0 0 0 0 0 0 0 0 0 0 0 0 0 0 0
0 0 0 0 0 0 0 0 0 0 0 0 0 0 0 0 0 0 0 0 0 0 0 0 0 0 0 0 0 0 0 0 0 0 0 0 0 0 0 0 0 0 0
0 0 0 0 0 0 0 0 0 0 0 0 0 0 0 0 0 0 0 0 0 0 0 0 0 0 0 0 0 0 0 0 0 0 0 0 0 0 0 0 0 0 0
0 0 0 0 0 0 0 0 0 0 0 0 0 0 0 0 0 0 0 0 0 0 0 0 0 0 0 0 0 0 0 0 0 0 0 0 0 0 0 0 0 0 0
0 0 0 0 0 0 0 0 0 0 0 0 0 0 0 0 0 0 0 0 0 0 0 0 0 0 0 0 0 0 0 0 0 0 0 0 0 0 0 0 0 0 0
0 0 0 0 0 0 0 0 0 0 0 0 0 0 0 0 0 0 0 0 0 0 0 0 0 0 0 0 0 0 0 0 0 0 0 0 0 0 0 0 0 0 0
0 0 0 0 0 0 0 0 0 0 0 0 0 0 0 0 0 0 0 0 0 0 0 0 0 0 0 0 0 0 0 0 0 0 0 0 0 0 0 0 0 0 0
0 0 0 0 0 0 0 0 0 0 0 0 0 0 0 0 0 0 0 0 0 0 0 0 0 0 0 0 0 0 0 0 0 0 0 0 0 0 0 0 0 0 0
0 0 0 0 0 0 0 0 0 0 0 0 0 0 0 0 0 0 0 0 0 0 0 0 0 0 0 0 0 0 0 0 0 0 0 0 0 0 0 0 0 0 0
0 0 0 0 0 0 0 0 0 0 0 0 0 0 0 0 0 0 0 0 0 0 0 0 0 0 0 0 0 0 0 0 0 0 0 0 0 0 0 0 0 0 0
0 0 0 0 0 0 0 0 0 0 0 0 0 0 0 0 0 0 0 0 0 0 0 0 0 0 0 0 0 0 0 0 0 0 0 0 0 0 0 0 0 0 0
0 0 0 0 0 0 0 0 0 0 0 0 0 0 0 0 0 0 0 0 0 0 0 0 0 0 0 0 0 0 0 0 0 0 0 0 0 0 0 0 0 0 0
Wind_Speed
3 3 2 2 2 1 1 2 3 3 4 4 4 4 4 4 4 3 3 3 3 3 3 3 4 3 2 2 3 3 3 4 5 3 2 2 3 3 3 4 5 6 7
4 3 2 2 1 1 2 3 3 3 3 4 4 4 4 4 3 3 3 3 3 4 4 4 4 3 2 2 2 3 3 4 4 4 3 3 4 4 5 5 5 5 5
4 3 3 2 2 3 3 3 3 3 3 4 3 4 4 4 4 3 3 3 3 4 4 4 4 3 3 2 3 3 3 3 3 4 3 2 2 3 3 4 4 4 5
4 4 4 4 4 4 3 3 3 3 3 3 3 4 4 4 4 4 3 4 4 4 4 4 4 3 4 3 3 3 3 3 3 3 3 2 2 2 3 3 4 4 5
5 5 6 5 4 3 3 3 3 3 3 3 3 4 4 4 4 4 4 4 3 4 4 4 4 5 6 4 3 3 3 3 3 3 3 3 3 3 4 3 4 3 4
5 6 5 4 4 4 4 3 3 3 4 3 4 4 5 4 7 8 5 3 3 4 5 5 5 5 5 5 5 5 5 5 5 4 4 5 5 4 4 4 4 4 4
3 4 4 4 4 5 4 3 4 4 3 4 4 4 5 6 10 9 8 3 3 4 4 4 4 4 4 3 4 5 5 7 8 6 6 6 5 5 5 5 5 5 4
2 2 3 3 4 4 4 4 5 4 4 4 5 5 5 7 9 8 8 3 3 4 4 4 4 4 4 4 3 3 4 4 5 5 6 6 6 5 6 6 5 3 2
1 2 3 3 4 4 4 5 5 4 4 4 4 5 5 7 9 7 6 2 3 5 5 4 4 4 7 6 3 3 4 4 5 7 7 8 8 9 7 4 4 4 3
3 3 3 3 3 4 5 5 4 4 5 5 5 5 5 6 9 8 5 1 3 4 4 4 6 6 7 6 3 3 5 5 4 4 5 6 6 7 10 8 7 6 3
3 2 2 3 3 4 4 3 3 4 4 4 5 5 5 6 8 8 6 2 3 4 4 4 4 9 9 9 6 5 8 6 4 4 4 4 3 4 5 6 6 6 5
2 2 3 4 4 3 3 4 3 3 3 4 4 5 4 5 5 7 7 6 4 3 4 4 5 10 11 10 7 7 9 7 3 3 4 4 4 4 4 5 6 6 6
3 4 4 5 4 4 3 4 3 2 2 3 3 4 5 4 4 7 8 7 6 4 5 8 10 11 10 7 7 9 6 3 3 3 4 4 4 4 3 3 4 4 4
4 4 4 5 5 5 4 3 2 2 2 2 3 3 4 4 4 4 4 4 5 5 5 7 10 9 6 7 6 5 3 3 3 4 4 4 3 3 3 3 3 3 3
4 5 5 5 5 5 4 3 3 2 2 1 2 2 3 5 7 7 4 3 3 4 4 3 3 4 4 4 3 3 3 3 3 3 4 4 3 4 3 3 3 3 4
4 4 4 4 4 4 4 4 5 5 8 7 6 5 3 6 10 10 9 7 7 7 3 2 4 4 5 5 5 5 4 4 4 4 4 4 4 4 4 3 3 4 5
4 4 3 4 4 4 4 4 5 6 8 9 10 11 9 10 11 11 11 9 9 7 4 4 5 5 6 5 5 5 5 4 4 4 4 5 4 4 4 4 4 4 4
4 5 5 3 3 4 4 4 3 4 5 6 7 11 12 11 11 11 11 8 7 6 4 4 5 6 6 6 6 6 6 5 4 4 4 5 4 4 4 5 5 5 5
4 3 3 3 3 3 4 4 4 4 4 4 5 7 10 9 9 10 9 6 5 6 6 5 5 6 6 6 6 6 6 6 5 4 4 5 5 5 5 5 5 7 6
3 7 6 3 3 4 4 4 4 4 4 5 5 5 6 6 6 7 6 5 5 5 6 6 6 6 6 7 6 6 6 6 6 5 4 4 4 5 6 6 6 6 6
3 4 8 5 3 3 3 3 3 3 4 4 4 5 8 5 5 5 5 4 4 5 5 5 5 6 6 6 6 7 8 6 6 7 6 5 4 4 5 5 6 6 6
2 2 2 2 3 3 3 3 3 3 4 4 4 4 8 4 4 4 4 4 4 3 4 4 4 4 4 5 6 6 7 7 7 7 8 7 6 5 5 5 5 6 6
2 2 2 2 2 4 4 3 3 3 3 4 4 4 4 4 4 4 4 4 4 4 4 4 4 4 4 4 4 4 5 6 7 8 8 8 8 7 6 6 6 6 7
2 2 2 2 2 2 2 3 3 3 3 4 4 4 4 4 4 5 5 4 4 5 4 4 4 6 8 6 4 4 4 5 6 6 9 8 9 8 7 6 7 8 7
1 1 1 1 2 2 2 2 3 3 3 4 4 4 4 4 5 5 5 5 6 6 7 6 5 6 8 9 8 7 8 10 9 7 7 7 9 9 9 8 7 7 7
1 1 1 1 2 2 2 2 3 3 3 4 4 4 5 5 5 6 6 6 6 7 7 6 8 9 11 9 10 12 12 12 12 11 7 7 8 8 9 8 10 8 8
Wind_Direction
210 212 219 253 262 279 296 298 303 310 319 326 328 333 336 338 339 338 323 323 324 313 308 298 285 270 248 232 220 212 206 199 227 243 218 212 204 217 207 205 202 203 208
209 205 216 231 242 272 281 285 298 307 314 319 326 334 337 340 339 335 322 326 316 312 309 305 295 291 267 244 224 221 215 206 212 235 223 206 213 212 207 204 210 209 207
201 202 216 226 238 253 265 279 293 301 312 321 325 325 324 324 325 320 307 306 298 292 293 291 286 288 279 260 238 227 221 218 210 223 230 209 213 204 201 207 207 209 210
199 203 217 228 230 239 254 271 282 290 299 307 306 306 307 308 307 305 304 302 301 297 292 288 280 266 264 260 250 236 225 220 214 224 232 220 214 201 187 197 206 206 208
200 210 224 230 230 239 255 267 278 289 290 291 299 307 308 303 298 300 295 298 299 303 302 295 288 281 275 262 253 230 215 217 218 221 229 221 211 195 202 194 205 200 207
206 221 230 230 232 240 250 259 274 285 289 293 293 297 303 302 310 311 306 295 299 300 302 305 300 293 296 296 289 260 226 219 221 216 223 225 224 213 202 197 194 194 213
215 233 236 233 238 246 251 259 267 271 276 286 286 287 289 292 302 310 314 304 297 296 295 299 307 313 320 301 298 298 274 254 234 218 220 226 222 212 198 202 203 202 211
227 255 252 245 250 256 256 259 262 261 264 270 276 279 282 290 299 303 312 307 300 303 299 291 291 300 302 296 288 295 286 277 258 240 229 231 228 218 205 206 204 203 212
264 266 259 248 253 262 263 261 259 258 265 264 269 274 278 288 295 295 305 299 298 301 301 298 293 290 298 302 284 285 291 286 272 258 249 245 240 227 204 184 186 192 216
273 263 258 251 251 258 261 263 262 255 260 270 276 272 268 276 288 289 291 259 284 293 299 297 294 290 296 297 274 269 277 278 280 283 271 264 248 227 211 203 198 201 199
299 301 299 284 268 265 272 271 274 278 281 280 281 284 280 275 286 287 278 238 255 278 288 292 290 297 297 291 275 255 260 267 265 262 265 259 246 228 217 210 203 201 201
0 359 334 317 310 314 289 291 290 292 297 295 294 298 295 289 284 285 283 262 253 255 272 278 283 294 297 293 280 267 269 272 256 255 258 251 241 234 225 216 211 211 211
21 0 340 338 336 333 321 313 316 316 308 305 305 302 305 307 302 297 292 284 273 258 267 279 289 296 300 296 280 280 278 259 250 255 256 250 240 233 221 215 212 207 208
30 5 353 351 346 346 347 344 343 341 335 331 330 320 317 320 318 312 302 296 292 284 285 294 299 299 295 287 288 284 264 246 242 246 252 252 242 226 219 211 213 201 202
34 15 4 0 352 349 352 353 353 354 15 7 338 325 341 333 323 319 308 300 293 286 303 312 320 322 322 314 306 294 279 266 254 245 245 252 245 235 228 213 208 200 206
37 16 5 360 355 356 355 354 2 10 15 24 25 21 355 345 348 354 347 335 332 333 340 325 318 314 309 305 301 299 287 271 262 252 247 247 243 233 229 219 212 214 217
41 19 8 7 6 4 7 10 360 359 17 22 17 14 11 4 6 5 0 357 1 7 8 340 332 327 321 314 305 295 287 279 267 257 250 246 242 233 224 223 221 224 227
35 30 27 10 7 6 7 8 11 11 7 2 358 5 9 11 13 13 10 15 14 20 7 346 337 333 330 328 323 315 307 300 282 265 257 250 240 233 227 224 223 223 224
31 19 18 12 12 12 10 13 16 16 12 1 359 2 6 7 16 21 23 27 11 1 355 349 343 339 334 330 328 325 319 313 307 292 272 258 248 237 234 228 224 221 219
27 32 40 26 15 14 14 17 16 15 13 12 10 1 357 13 20 15 20 16 9 358 352 348 345 343 340 338 333 330 329 327 322 312 298 284 269 251 241 233 227 222 220
31 23 32 31 18 15 15 14 13 15 12 7 358 356 6 14 9 4 4 4 358 352 348 346 345 343 340 339 341 340 337 335 333 325 313 298 283 273 261 245 233 225 221
42 26 19 14 6 8 8 4 7 9 6 3 348 352 3 8 356 351 346 343 336 330 326 328 331 332 338 341 340 340 339 334 332 331 324 315 299 281 272 263 250 233 222
41 27 17 6 1 3 8 3 0 358 353 349 345 347 351 349 343 339 333 327 323 318 314 313 316 318 319 319 322 325 329 331 326 319 316 313 306 293 276 264 257 248 233
34 21 7 351 351 355 350 346 343 340 339 337 337 336 334 332 328 324 319 313 313 311 307 304 302 305 307 306 302 301 302 305 314 314 309 304 304 299 286 272 261 252 243
22 6 353 337 330 328 329 332 331 330 329 327 327 325 321 320 317 314 312 310 312 311 310 307 301 301 302 301 298 296 298 298 300 308 308 300 298 297 292 281 269 260 249
353 342 323 311 307 307 312 317 319 321 319 319 318 315 313 312 309 308 308 307 307 305 304 301 298 297 296 295 293 292 293 296 297 299 299 296 296 295 295 286 277 264 254